ICEYE-X48

导读 | 豆包AI

ICEYE-X48是一颗合成孔径雷达卫星,由芬兰ICEYE公司运营,其发射国家暂未确定,于2025年3月15日发射入轨。该卫星延续了ICEYE星座高分辨率、重访周期短的特点,可全天时全天候获取地球观测数据,广泛服务于灾害监测、资源勘探、海事监测等多个领域,进一步扩充了全球商业SAR卫星星座的观测能力。

基本信息
目录编号:
63253
目录名称:
ICEYE-X48
国际标识:
2025-052AV
轨道中心:
EARTH
卫星名称:
ICEYE-X48
卫星全名:
ICEYE-X48
卫星状态:
在轨 (已飞行385 天)
发射日期:
2025-03-15 UTC
国别 :
美国 (US)
星等 :
--
轨道信息
数据来源 国际轨道数据
星历时间: 2026-04-03T23:10:18+0800
12小时前
查看轨道信息
半长轴: 6952.613km
偏心率: 0.0003442
轨道倾角: 97.695°
近地点辐角 96.021°
升交点赤经 346.952°
平近点角 264.140°
近地点: 572.082km
远地点: 576.87km
周期: 96.157分钟
每日圈数: 14.97548
详细信息
使用方式:
暂无
2D轨道图
3D轨道图
轨道高度分析图
轨道倾角分析图
轨道综合分析图
查看轨道综合分析图